カタログに戻る

FALCON 9 R/B

運用中MEO
NORAD 54757·ROCKET BODY·🇺🇸 United States

打ち上げ Dec 16, 2022 から Cape Canaveral Space Force Station

Loading…

次のパス (今後24時間)

TLE

最新Source: Space-Track

元期: Sep 14, 2026, 03:35 UTC

1 54757U 22174C   26257.14952397  .00000042  00000-0  00000-0 0  9992
2 54757   9.6147  85.3795 1867294  88.3918 292.8023  7.26281939 99403

AllMySatでFALCON 9 R/Bをリアルタイム追跡

Download on the App Store